Location: Waco, TX
(31.5480°N, 97.1670°W)
Time: 05:17:08
(UTC-05:00)

ISS - Pass Details

Date: 18 May 2018
Orbit: 402 x 407 km, 51.6° (Epoch: 26 May)

Event Time Altitude Azimuth Distance (km) Brightness Sun altitude
Rises 22:19:51 0° 220° (SW) 2,303 - -22.2°
Reaches altitude 10° 22:21:56 10° 219° (SW) 1,447 - -22.5°
Maximum altitude 22:25:10 75° 134° (SE) 418 - -23.0°
Drops below altitude 10° 22:28:24 10° 48° (NE) 1,452 - -23.5°
Sets 22:30:29 0° 47° (NE) 2,313 - -23.8°
